"read_dt","SO2 (ppb)","flags","PMT voltage (V)","lamp voltage (V)","lamp intensity (Hz)","internal temp (C)","react chamber temp (C)","sample flow (l/min)","pres (mmHg)","SO2 bkg (ppb)","SO2 coefficient"
2015-06-15 00:00:00,1736E-3,5C000000,-0724,0823,12349,025.8,045.4,0.477,730.9,01.19,0.508
2015-06-15 00:01:00,1776E-3,5C000000,-0724,0823,12099,025.8,045.4,0.477,730.9,01.19,0.508
2015-06-15 00:02:00,1700E-3,5C000000,-0724,0822,12316,025.8,045.4,0.477,730.8,01.19,0.508
2015-06-15 00:03:00,1729E-3,5C000000,-0724,0823,12199,025.8,045.4,0.477,730.8,01.19,0.508
2015-06-15 00:04:00,1658E-3,5C000000,-0724,0823,12235,025.8,045.4,0.477,730.8,01.19,0.508
2015-06-15 00:05:00,1610E-3,5C000000,-0724,0823,12510,025.8,045.4,0.477,730.8,01.19,0.508
2015-06-15 00:06:00,1724E-3,5C000000,-0724,0823,12278,025.8,045.4,0.478,730.8,01.19,0.508
2015-06-15 00:07:00,1725E-3,5C000000,-0724,0822,12250,025.8,045.4,0.477,730.8,01.19,0.508
2015-06-15 00:08:00,1824E-3,5C000000,-0724,0822,12190,025.8,045.4,0.477,730.8,01.19,0.508
2015-06-15 00:09:00,1551E-3,5C000000,-0724,0822,12305,025.8,045.4,0.477,730.8,01.19,0.508
2015-06-15 00:10:00,1740E-3,5C000000,-0724,0822,12303,025.9,045.4,0.477,730.8,01.19,0.508
2015-06-15 00:11:00,1810E-3,5C000000,-0724,0822,12427,025.8,045.4,0.477,730.8,01.19,0.508
2015-06-15 00:12:00,1657E-3,5C000000,-0724,0823,12227,025.9,045.4,0.477,730.8,01.19,0.508
2015-06-15 00:13:00,1615E-3,5C000000,-0724,0822,12271,025.9,045.4,0.477,730.8,01.19,0.508
2015-06-15 00:14:00,1668E-3,5C000000,-0724,0822,12266,025.8,045.4,0.477,730.8,01.19,0.508
2015-06-15 00:15:00,1751E-3,5C000000,-0724,0822,12443,025.8,045.4,0.477,730.8,01.19,0.508
2015-06-15 00:16:00,1775E-3,5C000000,-0724,0822,12360,025.9,045.4,0.477,730.8,01.19,0.508
2015-06-15 00:17:00,1772E-3,5C000000,-0724,0823,12118,025.9,045.4,0.477,730.8,01.19,0.508
2015-06-15 00:18:00,1762E-3,5C000000,-0724,0823,12210,025.9,045.4,0.477,730.8,01.19,0.508
2015-06-15 00:19:00,1819E-3,5C000000,-0724,0823,12329,025.8,045.4,0.477,730.8,01.19,0.508
2015-06-15 00:20:00,1835E-3,5C000000,-0724,0822,12130,025.8,045.4,0.477,730.8,01.19,0.508
2015-06-15 00:21:00,1661E-3,5C000000,-0724,0823,12304,025.8,045.4,0.477,730.8,01.19,0.508
2015-06-15 00:22:00,1759E-3,5C000000,-0724,0822,12292,025.8,045.4,0.477,730.7,01.19,0.508
2015-06-15 00:23:00,1680E-3,5C000000,-0724,0823,12187,025.7,045.4,0.477,730.8,01.19,0.508
2015-06-15 00:24:00,1681E-3,5C000000,-0724,0822,12221,025.7,045.4,0.477,730.7,01.19,0.508
2015-06-15 00:25:00,1812E-3,5C000000,-0724,0822,12174,025.7,045.4,0.477,730.7,01.19,0.508
2015-06-15 00:26:00,1646E-3,5C000000,-0724,0822,12224,025.6,045.4,0.477,730.8,01.19,0.508
2015-06-15 00:27:00,1624E-3,5C000000,-0724,0823,12387,025.6,045.4,0.478,730.8,01.19,0.508
2015-06-15 00:28:00,1838E-3,5C000000,-0724,0823,12283,025.6,045.4,0.477,730.8,01.19,0.508
2015-06-15 00:29:00,1750E-3,5C000000,-0724,0823,12329,025.6,045.4,0.478,730.8,01.19,0.508
2015-06-15 00:30:00,1674E-3,5C000000,-0724,0822,12246,025.6,045.4,0.477,730.7,01.19,0.508
2015-06-15 00:31:00,1728E-3,5C000000,-0724,0822,12316,025.6,045.4,0.477,730.7,01.19,0.508
2015-06-15 00:32:00,1728E-3,5C000000,-0724,0822,12155,025.5,045.4,0.478,730.8,01.19,0.508
2015-06-15 00:33:00,1713E-3,5C000000,-0724,0822,12345,025.5,045.4,0.478,730.8,01.19,0.508
2015-06-15 00:34:00,1670E-3,5C000000,-0724,0822,12230,025.5,045.4,0.478,730.8,01.19,0.508
2015-06-15 00:35:00,1632E-3,5C000000,-0724,0823,12326,025.4,045.4,0.478,730.8,01.19,0.508
2015-06-15 00:36:00,1799E-3,5C000000,-0724,0822,12300,025.4,045.4,0.478,730.7,01.19,0.508
2015-06-15 00:37:00,1740E-3,5C000000,-0724,0823,12164,025.4,045.4,0.478,730.8,01.19,0.508
2015-06-15 00:38:00,1653E-3,5C000000,-0724,0823,12295,025.4,045.4,0.478,730.7,01.19,0.508
2015-06-15 00:39:00,1517E-3,5C000000,-0724,0823,12246,025.4,045.4,0.478,730.8,01.19,0.508
2015-06-15 00:40:00,1613E-3,5C000000,-0724,0823,12259,025.6,045.4,0.477,730.7,01.19,0.508
2015-06-15 00:41:00,1703E-3,5C000000,-0724,0822,12323,025.7,045.4,0.478,730.7,01.19,0.508
2015-06-15 00:42:00,1659E-3,5C000000,-0724,0823,12270,025.8,045.4,0.477,730.6,01.19,0.508
2015-06-15 00:43:00,1693E-3,5C000000,-0724,0823,12249,026.0,045.4,0.477,730.7,01.19,0.508
2015-06-15 00:44:00,1709E-3,5C000000,-0724,0824,12270,026.1,045.4,0.477,730.7,01.19,0.508
2015-06-15 00:45:00,1667E-3,5C000000,-0724,0823,12299,026.3,045.4,0.477,730.7,01.19,0.508
2015-06-15 00:46:00,1599E-3,5C000000,-0724,0822,11887,026.4,045.4,0.477,730.7,01.19,0.508
2015-06-15 00:47:00,1756E-3,5C000000,-0724,0823,12337,026.5,045.4,0.477,730.7,01.19,0.508
2015-06-15 00:48:00,1814E-3,5C000000,-0724,0823,12302,026.6,045.4,0.477,730.7,01.19,0.508
2015-06-15 00:49:00,1664E-3,5C000000,-0724,0823,12244,026.7,045.4,0.476,730.7,01.19,0.508
2015-06-15 00:50:00,1797E-3,5C000000,-0724,0823,12207,026.7,045.4,0.476,730.7,01.19,0.508
2015-06-15 00:51:00,1747E-3,5C000000,-0724,0823,12350,026.7,045.4,0.476,730.7,01.19,0.508
2015-06-15 00:52:00,1619E-3,5C000000,-0724,0822,12328,026.7,045.4,0.476,730.7,01.19,0.508
2015-06-15 00:53:00,1735E-3,5C000000,-0724,0823,12092,026.7,045.4,0.476,730.7,01.19,0.508
2015-06-15 00:54:00,1684E-3,5C000000,-0724,0822,12365,026.7,045.4,0.476,730.7,01.19,0.508
2015-06-15 00:55:00,1746E-3,5C000000,-0724,0822,12192,026.7,045.4,0.476,730.7,01.19,0.508
2015-06-15 00:56:00,1619E-3,5C000000,-0724,0822,12271,026.7,045.4,0.476,730.7,01.19,0.508
2015-06-15 00:57:00,1806E-3,5C000000,-0724,0821,12273,026.6,045.4,0.476,730.7,01.19,0.508
2015-06-15 00:58:00,1719E-3,5C000000,-0724,0822,12175,026.5,045.4,0.476,730.7,01.19,0.508
2015-06-15 00:59:00,1742E-3,5C000000,-0724,0822,12333,026.5,045.4,0.476,730.7,01.19,0.508
2015-06-15 01:00:00,1692E-3,5C000000,-0724,0823,12397,026.5,045.4,0.476,730.7,01.19,0.508
2015-06-15 01:01:00,1570E-3,5C000000,-0724,0823,12264,026.4,045.4,0.476,730.7,01.19,0.508
2015-06-15 01:02:00,1693E-3,5C000000,-0724,0822,12201,026.4,045.4,0.476,730.7,01.19,0.508
2015-06-15 01:03:00,1773E-3,5C000000,-0724,0822,12311,026.3,045.4,0.476,730.7,01.19,0.508
2015-06-15 01:04:00,1715E-3,5C000000,-0724,0821,12137,026.3,045.4,0.477,730.7,01.19,0.508
2015-06-15 01:05:00,1830E-3,5C000000,-0724,0822,12335,026.2,045.4,0.476,730.7,01.19,0.508
2015-06-15 01:06:00,1621E-3,5C000000,-0724,0822,12153,026.2,045.4,0.477,730.7,01.19,0.508
2015-06-15 01:07:00,1715E-3,5C000000,-0724,0822,12233,026.2,045.4,0.476,730.7,01.19,0.508
2015-06-15 01:08:00,1612E-3,5C000000,-0724,0823,12293,026.2,045.4,0.477,730.7,01.19,0.508
2015-06-15 01:09:00,1742E-3,5C000000,-0724,0823,12227,026.2,045.4,0.476,730.7,01.19,0.508
2015-06-15 01:10:00,1610E-3,5C000000,-0724,0823,12078,026.1,045.4,0.477,730.7,01.19,0.508
2015-06-15 01:11:00,1719E-3,5C000000,-0724,0822,12169,026.1,045.4,0.477,730.7,01.19,0.508
2015-06-15 01:12:00,1631E-3,5C000000,-0724,0822,12069,026.1,045.4,0.477,730.7,01.19,0.508
2015-06-15 01:13:00,1701E-3,5C000000,-0724,0822,12272,026.1,045.4,0.477,730.7,01.19,0.508
2015-06-15 01:14:00,1746E-3,5C000000,-0724,0822,12367,026.1,045.4,0.476,730.7,01.19,0.508
2015-06-15 01:15:00,1619E-3,5C000000,-0724,0822,12282,026.1,045.4,0.477,730.7,01.19,0.508
2015-06-15 01:16:00,1704E-3,5C000000,-0724,0823,12282,026.0,045.4,0.477,730.7,01.19,0.508
2015-06-15 01:17:00,1699E-3,5C000000,-0724,0823,12226,026.0,045.4,0.477,730.7,01.19,0.508
2015-06-15 01:18:00,1615E-3,5C000000,-0724,0823,12243,026.0,045.4,0.477,730.7,01.19,0.508
2015-06-15 01:19:00,1738E-3,5C000000,-0724,0822,12176,026.0,045.4,0.477,730.7,01.19,0.508
2015-06-15 01:20:00,1798E-3,5C000000,-0724,0823,12405,026.0,045.4,0.477,730.7,01.19,0.508
2015-06-15 01:21:00,1663E-3,5C000000,-0724,0822,12216,026.0,045.4,0.477,730.7,01.19,0.508
2015-06-15 01:22:00,1635E-3,5C000000,-0724,0822,12262,026.0,045.4,0.477,730.7,01.19,0.508
2015-06-15 01:23:00,1642E-3,5C000000,-0724,0822,12366,026.0,045.4,0.477,730.7,01.19,0.508
2015-06-15 01:24:00,1792E-3,5C000000,-0724,0822,12245,026.0,045.4,0.477,730.7,01.19,0.508
2015-06-15 01:25:00,1782E-3,5C000000,-0724,0823,12298,026.0,045.4,0.477,730.7,01.19,0.508
2015-06-15 01:26:00,1634E-3,5C000000,-0724,0822,12280,026.0,045.4,0.477,730.7,01.19,0.508
2015-06-15 01:27:00,1610E-3,5C000000,-0724,0821,12441,025.9,045.4,0.477,730.7,01.19,0.508
2015-06-15 01:28:00,1633E-3,5C000000,-0724,0822,12091,026.0,045.4,0.477,730.7,01.19,0.508
2015-06-15 01:29:00,1702E-3,5C000000,-0724,0823,12378,025.9,045.4,0.477,730.6,01.19,0.508
2015-06-15 01:30:00,1581E-3,5C000000,-0724,0823,12274,026.0,045.4,0.477,730.6,01.19,0.508
2015-06-15 01:31:00,1589E-3,5C000000,-0724,0822,12216,026.0,045.4,0.477,730.6,01.19,0.508
2015-06-15 01:32:00,1628E-3,5C000000,-0724,0822,12295,025.9,045.4,0.477,730.6,01.19,0.508
2015-06-15 01:33:00,1693E-3,5C000000,-0724,0822,12150,025.9,045.4,0.477,730.6,01.19,0.508
2015-06-15 01:34:00,1571E-3,5C000000,-0724,0823,12465,025.9,045.4,0.477,730.6,01.19,0.508
2015-06-15 01:35:00,1793E-3,5C000000,-0724,0822,12256,025.9,045.4,0.477,730.6,01.19,0.508
2015-06-15 01:36:00,1841E-3,5C000000,-0724,0822,12185,026.0,045.4,0.477,730.6,01.19,0.508
2015-06-15 01:37:00,1664E-3,5C000000,-0724,0822,12228,025.9,045.4,0.477,730.6,01.19,0.508
2015-06-15 01:38:00,1773E-3,5C000000,-0724,0823,12146,026.0,045.4,0.477,730.6,01.19,0.508
2015-06-15 01:39:00,1636E-3,5C000000,-0724,0823,12386,025.9,045.4,0.477,730.6,01.19,0.508
2015-06-15 01:40:00,1637E-3,5C000000,-0724,0823,12303,026.0,045.4,0.477,730.6,01.19,0.508
2015-06-15 01:41:00,1723E-3,5C000000,-0724,0822,12193,025.9,045.4,0.477,730.5,01.19,0.508
2015-06-15 01:42:00,1687E-3,5C000000,-0724,0822,12407,026.0,045.4,0.477,730.6,01.19,0.508
2015-06-15 01:43:00,1746E-3,5C000000,-0724,0822,12223,026.0,045.4,0.477,730.6,01.19,0.508
2015-06-15 01:44:00,1778E-3,5C000000,-0724,0822,12215,025.9,045.4,0.477,730.5,01.19,0.508
2015-06-15 01:45:00,1904E-3,5C000000,-0724,0822,12226,025.9,045.4,0.477,730.6,01.19,0.508
2015-06-15 01:46:00,1645E-3,5C000000,-0724,0823,12279,026.0,045.4,0.477,730.5,01.19,0.508
2015-06-15 01:47:00,1636E-3,5C000000,-0724,0822,12388,025.9,045.4,0.477,730.6,01.19,0.508
2015-06-15 01:48:00,1657E-3,5C000000,-0724,0823,12319,025.9,045.4,0.477,730.5,01.19,0.508
2015-06-15 01:49:00,1632E-3,5C000000,-0724,0823,12301,026.0,045.4,0.477,730.6,01.19,0.508
2015-06-15 01:50:00,1820E-3,5C000000,-0724,0823,12341,026.0,045.4,0.477,730.6,01.19,0.508
2015-06-15 01:51:00,1627E-3,5C000000,-0724,0823,12234,026.0,045.4,0.477,730.6,01.19,0.508
2015-06-15 01:52:00,1839E-3,5C000000,-0724,0822,12338,026.0,045.4,0.477,730.6,01.19,0.508
2015-06-15 01:53:00,1852E-3,5C000000,-0724,0823,12205,026.0,045.4,0.477,730.6,01.19,0.508
2015-06-15 01:54:00,1598E-3,5C000000,-0724,0823,12349,025.9,045.4,0.477,730.6,01.19,0.508
2015-06-15 01:55:00,1610E-3,5C000000,-0724,0822,12394,025.9,045.4,0.477,730.7,01.19,0.508
2015-06-15 01:56:00,1719E-3,5C000000,-0724,0822,12166,026.0,045.4,0.477,730.7,01.19,0.508
2015-06-15 01:57:00,1634E-3,5C000000,-0724,0823,12095,025.9,045.4,0.477,730.6,01.19,0.508
2015-06-15 01:58:00,1453E-3,5C000000,-0724,0822,12228,025.9,045.4,0.477,730.7,01.19,0.508
2015-06-15 01:59:00,1664E-3,5C000000,-0724,0823,12176,026.0,045.4,0.477,730.6,01.19,0.508
2015-06-15 02:00:00,1632E-3,5C000000,-0724,0822,12184,026.0,045.4,0.477,730.6,01.19,0.508
2015-06-15 02:01:00,1691E-3,5C000000,-0724,0823,12237,025.9,045.4,0.477,730.6,01.19,0.508
2015-06-15 02:02:00,1743E-3,5C000000,-0724,0823,12162,026.0,045.4,0.477,730.6,01.19,0.508
2015-06-15 02:03:00,1612E-3,5C000000,-0724,0823,12232,025.9,045.4,0.477,730.6,01.19,0.508
2015-06-15 02:04:00,1641E-3,5C000000,-0724,0822,12283,025.9,045.4,0.477,730.6,01.19,0.508
2015-06-15 02:05:00,1556E-3,5C000000,-0724,0822,12219,025.9,045.4,0.477,730.6,01.19,0.508
2015-06-15 02:06:00,1601E-3,5C000000,-0724,0821,12163,025.9,045.4,0.477,730.6,01.19,0.508
2015-06-15 02:07:00,1719E-3,5C000000,-0724,0823,12337,025.9,045.4,0.477,730.6,01.19,0.508
2015-06-15 02:08:00,1626E-3,5C000000,-0724,0822,12148,026.0,045.4,0.477,730.6,01.19,0.508
2015-06-15 02:09:00,1698E-3,5C000000,-0724,0822,12075,025.9,045.4,0.477,730.6,01.19,0.508
2015-06-15 02:10:00,1726E-3,5C000000,-0724,0823,12322,025.9,045.4,0.477,730.7,01.19,0.508
2015-06-15 02:11:00,1624E-3,5C000000,-0724,0823,12351,025.9,045.4,0.477,730.7,01.19,0.508
2015-06-15 02:12:00,1687E-3,5C000000,-0724,0822,12226,025.9,045.4,0.477,730.6,01.19,0.508
2015-06-15 02:13:00,1709E-3,5C000000,-0724,0823,12234,026.0,045.4,0.477,730.6,01.19,0.508
2015-06-15 02:14:00,1654E-3,5C000000,-0724,0822,12356,025.9,045.4,0.477,730.6,01.19,0.508
2015-06-15 02:15:00,1657E-3,5C000000,-0724,0822,12327,025.9,045.4,0.477,730.6,01.19,0.508
2015-06-15 02:16:00,1720E-3,5C000000,-0724,0822,12326,025.9,045.4,0.477,730.6,01.19,0.508
2015-06-15 02:17:00,1584E-3,5C000000,-0724,0823,12306,025.9,045.4,0.477,730.6,01.19,0.508
2015-06-15 02:18:00,1706E-3,5C000000,-0724,0823,12269,026.0,045.4,0.477,730.6,01.19,0.508
2015-06-15 02:19:00,1633E-3,5C000000,-0724,0823,12388,025.9,045.4,0.477,730.6,01.19,0.508
2015-06-15 02:20:00,1661E-3,5C000000,-0724,0823,12213,026.0,045.4,0.477,730.6,01.19,0.508
2015-06-15 02:21:00,1577E-3,5C000000,-0724,0823,12301,026.0,045.4,0.477,730.7,01.19,0.508
2015-06-15 02:22:00,1616E-3,5C000000,-0724,0823,12375,026.0,045.4,0.477,730.7,01.19,0.508
2015-06-15 02:23:00,1797E-3,5C000000,-0724,0823,12199,025.9,045.4,0.477,730.7,01.19,0.508
2015-06-15 02:24:00,1674E-3,5C000000,-0724,0823,12313,026.0,045.4,0.477,730.7,01.19,0.508
2015-06-15 02:25:00,1734E-3,5C000000,-0724,0823,12039,026.0,045.4,0.477,730.6,01.19,0.508
2015-06-15 02:26:00,1680E-3,5C000000,-0724,0823,12417,026.0,045.4,0.477,730.6,01.19,0.508
2015-06-15 02:27:00,1795E-3,5C000000,-0724,0823,12175,026.0,045.4,0.477,730.6,01.19,0.508
2015-06-15 02:28:00,1627E-3,5C000000,-0724,0823,12358,026.0,045.4,0.477,730.7,01.19,0.508
2015-06-15 02:29:00,1647E-3,5C000000,-0724,0823,12148,026.0,045.4,0.477,730.6,01.19,0.508
2015-06-15 02:30:00,1724E-3,5C000000,-0724,0823,12334,026.0,045.4,0.477,730.7,01.19,0.508
2015-06-15 02:31:00,1732E-3,5C000000,-0724,0822,12198,026.0,045.4,0.477,730.7,01.19,0.508
2015-06-15 02:32:00,1769E-3,5C000000,-0724,0822,12330,026.0,045.4,0.477,730.7,01.19,0.508
2015-06-15 02:33:00,1714E-3,5C000000,-0724,0823,12339,026.0,045.4,0.477,730.7,01.19,0.508
2015-06-15 02:34:00,1626E-3,5C000000,-0724,0822,12210,026.0,045.4,0.477,730.7,01.19,0.508
2015-06-15 02:35:00,1843E-3,5C000000,-0724,0823,12263,026.0,045.4,0.477,730.7,01.19,0.508
2015-06-15 02:36:00,1673E-3,5C000000,-0724,0823,12326,026.0,045.4,0.477,730.7,01.19,0.508
2015-06-15 02:37:00,1677E-3,5C000000,-0724,0823,12382,026.0,045.4,0.477,730.7,01.19,0.508
2015-06-15 02:38:00,1777E-3,5C000000,-0724,0822,12266,026.0,045.4,0.477,730.7,01.19,0.508
2015-06-15 02:39:00,1760E-3,5C000000,-0724,0824,12455,026.0,045.4,0.477,730.7,01.19,0.508
2015-06-15 02:40:00,1807E-3,5C000000,-0724,0822,12108,026.0,045.4,0.477,730.7,01.19,0.508
2015-06-15 02:41:00,1649E-3,5C000000,-0724,0824,12325,026.0,045.4,0.477,730.7,01.19,0.508
2015-06-15 02:42:00,1677E-3,5C000000,-0724,0822,12301,026.0,045.4,0.477,730.7,01.19,0.508
2015-06-15 02:43:00,1674E-3,5C000000,-0724,0823,12377,026.0,045.4,0.477,730.7,01.19,0.508
2015-06-15 02:44:00,1843E-3,5C000000,-0724,0823,12247,026.0,045.4,0.477,730.7,01.19,0.508
2015-06-15 02:45:00,1651E-3,5C000000,-0724,0822,12330,026.0,045.4,0.477,730.7,01.19,0.508
2015-06-15 02:46:00,1753E-3,5C000000,-0724,0824,12338,026.0,045.4,0.477,730.7,01.19,0.508
2015-06-15 02:47:00,1628E-3,5C000000,-0724,0823,12006,026.0,045.4,0.477,730.6,01.19,0.508
2015-06-15 02:48:00,1786E-3,5C000000,-0724,0822,12358,026.0,045.4,0.477,730.7,01.19,0.508
2015-06-15 02:49:00,1768E-3,5C000000,-0724,0823,12156,026.0,045.4,0.477,730.6,01.19,0.508
2015-06-15 02:50:00,1831E-3,5C000000,-0724,0823,12377,026.0,045.4,0.477,730.6,01.19,0.508
2015-06-15 02:51:00,1729E-3,5C000000,-0724,0823,12343,026.0,045.4,0.477,730.7,01.19,0.508
2015-06-15 02:52:00,1703E-3,5C000000,-0724,0824,12358,026.0,045.4,0.477,730.7,01.19,0.508
2015-06-15 02:53:00,1788E-3,5C000000,-0724,0823,12307,026.0,045.4,0.477,730.7,01.19,0.508
2015-06-15 02:54:00,1609E-3,5C000000,-0724,0823,12320,026.0,045.4,0.477,730.7,01.19,0.508
2015-06-15 02:55:00,1627E-3,5C000000,-0724,0823,12342,026.0,045.4,0.477,730.7,01.19,0.508
2015-06-15 02:56:00,1751E-3,5C000000,-0724,0823,12230,026.0,045.4,0.477,730.7,01.19,0.508
2015-06-15 02:57:00,1725E-3,5C000000,-0724,0822,12302,026.0,045.4,0.477,730.7,01.19,0.508
2015-06-15 02:58:00,1668E-3,5C000000,-0724,0823,12210,026.0,045.4,0.477,730.7,01.19,0.508
2015-06-15 02:59:00,1728E-3,5C000000,-0724,0824,12414,026.0,045.4,0.477,730.7,01.19,0.508
2015-06-15 03:00:00,1763E-3,5C000000,-0724,0823,12228,026.0,045.4,0.477,730.7,01.19,0.508
2015-06-15 03:01:00,1734E-3,5C000000,-0724,0823,12301,026.0,045.4,0.477,730.7,01.19,0.508
2015-06-15 03:02:00,1723E-3,5C000000,-0724,0824,12327,026.0,045.4,0.477,730.7,01.19,0.508
2015-06-15 03:03:00,1758E-3,5C000000,-0724,0823,12314,026.0,045.4,0.477,730.7,01.19,0.508
2015-06-15 03:04:00,1687E-3,5C000000,-0724,0823,12293,026.0,045.4,0.477,730.7,01.19,0.508
2015-06-15 03:05:00,1744E-3,5C000000,-0724,0823,12215,026.0,045.4,0.477,730.8,01.19,0.508
2015-06-15 03:06:00,1707E-3,5C000000,-0724,0823,12229,026.0,045.4,0.477,730.8,01.19,0.508
2015-06-15 03:07:00,1656E-3,5C000000,-0724,0823,12254,026.0,045.4,0.477,730.8,01.19,0.508
2015-06-15 03:08:00,1697E-3,5C000000,-0724,0825,12114,026.0,045.4,0.477,730.8,01.19,0.508
2015-06-15 03:09:00,1823E-3,5C000000,-0724,0824,12014,026.0,045.4,0.477,730.8,01.19,0.508
2015-06-15 03:10:00,1773E-3,5C000000,-0724,0823,12344,026.0,045.4,0.477,730.8,01.19,0.508
2015-06-15 03:11:00,1689E-3,5C000000,-0724,0823,12187,026.0,045.4,0.477,730.8,01.19,0.508
2015-06-15 03:12:00,1748E-3,5C000000,-0724,0823,12327,026.0,045.4,0.477,730.8,01.19,0.508
2015-06-15 03:13:00,1729E-3,5C000000,-0724,0824,12229,026.0,045.4,0.477,730.8,01.19,0.508
2015-06-15 03:14:00,1598E-3,5C000000,-0724,0824,12174,026.0,045.4,0.477,730.8,01.19,0.508
2015-06-15 03:15:00,1621E-3,5C000000,-0724,0823,12285,026.1,045.4,0.477,730.8,01.19,0.508
2015-06-15 03:16:00,1656E-3,5C000000,-0724,0822,12271,026.0,045.4,0.477,730.7,01.19,0.508
2015-06-15 03:17:00,1777E-3,5C000000,-0724,0822,12403,026.0,045.4,0.477,730.8,01.19,0.508
2015-06-15 03:18:00,1682E-3,5C000000,-0724,0822,12332,026.0,045.4,0.477,730.8,01.19,0.508
2015-06-15 03:19:00,1719E-3,5C000000,-0724,0824,12251,026.0,045.4,0.477,730.8,01.19,0.508
2015-06-15 03:20:00,1696E-3,5C000000,-0724,0824,12168,026.0,045.4,0.477,730.8,01.19,0.508
2015-06-15 03:21:00,1590E-3,5C000000,-0724,0824,12351,026.0,045.4,0.477,730.8,01.19,0.508
2015-06-15 03:22:00,1680E-3,5C000000,-0724,0822,12209,026.0,045.4,0.477,730.8,01.19,0.508
2015-06-15 03:23:00,1707E-3,5C000000,-0724,0823,12299,026.0,045.4,0.477,730.8,01.19,0.508
2015-06-15 03:24:00,1581E-3,5C000000,-0724,0822,12370,026.0,045.4,0.477,730.8,01.19,0.508
2015-06-15 03:25:00,1619E-3,5C000000,-0724,0823,11988,026.0,045.4,0.477,730.8,01.19,0.508
2015-06-15 03:26:00,1751E-3,5C000000,-0724,0823,12180,026.0,045.4,0.477,730.8,01.19,0.508
2015-06-15 03:27:00,1751E-3,5C000000,-0724,0823,12247,026.1,045.4,0.477,730.8,01.19,0.508
2015-06-15 03:28:00,1720E-3,5C000000,-0724,0823,12295,026.0,045.4,0.477,730.9,01.19,0.508
2015-06-15 03:29:00,1672E-3,5C000000,-0724,0823,12190,026.1,045.4,0.477,730.9,01.19,0.508
2015-06-15 03:30:00,1789E-3,5C000000,-0724,0823,12225,026.0,045.4,0.477,730.9,01.19,0.508
2015-06-15 03:31:00,1738E-3,5C000000,-0724,0824,12390,026.1,045.4,0.477,730.9,01.19,0.508
2015-06-15 03:32:00,1773E-3,5C000000,-0724,0824,12299,026.0,045.4,0.477,730.9,01.19,0.508
2015-06-15 03:33:00,1722E-3,5C000000,-0724,0823,12220,026.0,045.4,0.477,730.8,01.19,0.508
2015-06-15 03:34:00,1783E-3,5C000000,-0724,0823,12279,026.0,045.4,0.477,730.9,01.19,0.508
2015-06-15 03:35:00,1822E-3,5C000000,-0724,0823,12208,026.0,045.4,0.477,730.9,01.19,0.508
2015-06-15 03:36:00,1709E-3,5C000000,-0724,0823,12275,026.0,045.4,0.477,730.9,01.19,0.508
2015-06-15 03:37:00,1746E-3,5C000000,-0724,0824,12274,026.0,045.4,0.477,730.9,01.19,0.508
2015-06-15 03:38:00,1791E-3,5C000000,-0724,0822,12154,026.1,045.4,0.477,730.9,01.19,0.508
2015-06-15 03:39:00,1783E-3,5C000000,-0724,0822,12259,026.1,045.4,0.477,730.9,01.19,0.508
2015-06-15 03:40:00,1693E-3,5C000000,-0724,0823,12382,026.0,045.4,0.477,730.9,01.19,0.508
2015-06-15 03:41:00,1675E-3,5C000000,-0724,0823,12274,026.1,045.4,0.477,730.9,01.19,0.508
2015-06-15 03:42:00,1752E-3,5C000000,-0724,0823,12338,026.1,045.4,0.477,730.9,01.19,0.508
2015-06-15 03:43:00,1706E-3,5C000000,-0724,0823,12168,026.1,045.4,0.477,730.9,01.19,0.508
2015-06-15 03:44:00,1595E-3,5C000000,-0724,0824,12277,026.1,045.4,0.477,730.9,01.19,0.508
2015-06-15 03:45:00,1736E-3,5C000000,-0724,0823,12345,026.0,045.4,0.477,730.9,01.19,0.508
2015-06-15 03:46:00,1579E-3,5C000000,-0724,0823,12211,026.1,045.4,0.477,730.9,01.19,0.508
2015-06-15 03:47:00,1566E-3,5C000000,-0724,0823,12228,026.1,045.4,0.477,730.9,01.19,0.508
2015-06-15 03:48:00,1648E-3,5C000000,-0724,0822,12341,026.1,045.4,0.477,730.9,01.19,0.508
2015-06-15 03:49:00,1713E-3,5C000000,-0724,0824,12303,026.1,045.4,0.477,730.9,01.19,0.508
2015-06-15 03:50:00,1787E-3,5C000000,-0724,0823,12126,026.1,045.4,0.477,730.9,01.19,0.508
2015-06-15 03:51:00,1603E-3,5C000000,-0724,0821,12432,026.1,045.4,0.477,730.9,01.19,0.508
2015-06-15 03:52:00,1717E-3,5C000000,-0724,0823,12269,026.1,045.4,0.477,730.9,01.19,0.508
2015-06-15 03:53:00,1832E-3,5C000000,-0724,0823,12254,026.1,045.4,0.477,730.9,01.19,0.508
2015-06-15 03:54:00,1751E-3,5C000000,-0724,0823,12132,026.1,045.4,0.477,730.9,01.19,0.508
2015-06-15 03:55:00,1793E-3,5C000000,-0724,0823,12446,026.1,045.4,0.477,730.9,01.19,0.508
2015-06-15 03:56:00,1681E-3,5C000000,-0724,0822,12161,026.1,045.4,0.477,730.9,01.19,0.508
2015-06-15 03:57:00,1580E-3,5C000000,-0724,0823,12204,026.1,045.4,0.477,730.9,01.19,0.508
2015-06-15 03:58:00,1601E-3,5C000000,-0724,0823,12184,026.1,045.4,0.477,730.9,01.19,0.508
2015-06-15 03:59:00,1656E-3,5C000000,-0724,0823,12386,026.1,045.4,0.477,730.9,01.19,0.508
2015-06-15 04:00:00,1678E-3,5C000000,-0724,0823,12505,026.1,045.4,0.477,730.9,01.19,0.508
2015-06-15 04:01:00,1743E-3,5C000000,-0724,0823,12242,026.1,045.4,0.477,730.9,01.19,0.508
2015-06-15 04:02:00,1635E-3,5C000000,-0724,0824,12136,026.1,045.4,0.477,730.9,01.19,0.508
2015-06-15 04:03:00,1738E-3,5C000000,-0724,0822,12137,026.1,045.4,0.477,730.9,01.19,0.508
2015-06-15 04:04:00,1718E-3,5C000000,-0724,0824,12367,026.1,045.4,0.477,730.9,01.19,0.508
2015-06-15 04:05:00,1729E-3,5C000000,-0724,0824,12243,026.1,045.4,0.477,730.9,01.19,0.508
2015-06-15 04:06:00,1739E-3,5C000000,-0724,0824,12195,026.1,045.4,0.477,730.9,01.19,0.508
2015-06-15 04:07:00,1658E-3,5C000000,-0724,0824,12261,026.1,045.4,0.477,730.9,01.19,0.508
2015-06-15 04:08:00,1731E-3,5C000000,-0724,0824,12298,026.1,045.4,0.477,730.9,01.19,0.508
2015-06-15 04:09:00,1632E-3,5C000000,-0724,0822,12239,026.1,045.4,0.477,730.9,01.19,0.508
2015-06-15 04:10:00,1535E-3,5C000000,-0724,0824,12352,026.1,045.4,0.477,730.8,01.19,0.508
2015-06-15 04:11:00,1760E-3,5C000000,-0724,0823,12188,026.1,045.4,0.477,730.9,01.19,0.508
2015-06-15 04:12:00,1621E-3,5C000000,-0724,0823,12165,026.1,045.4,0.477,730.9,01.19,0.508
2015-06-15 04:13:00,1733E-3,5C000000,-0724,0823,12345,026.1,045.4,0.477,730.9,01.19,0.508
2015-06-15 04:14:00,1795E-3,5C000000,-0724,0824,12258,026.1,045.4,0.477,730.9,01.19,0.508
2015-06-15 04:15:00,1795E-3,5C000000,-0724,0823,12193,026.1,045.4,0.477,730.9,01.19,0.508
2015-06-15 04:16:00,1664E-3,5C000000,-0724,0823,12228,026.1,045.4,0.477,730.9,01.19,0.508
2015-06-15 04:17:00,1673E-3,5C000000,-0724,0823,12309,026.1,045.4,0.477,730.9,01.19,0.508
2015-06-15 04:18:00,1637E-3,5C000000,-0724,0823,12458,026.1,045.4,0.477,730.9,01.19,0.508
2015-06-15 04:19:00,1694E-3,5C000000,-0724,0822,12306,026.1,045.4,0.477,730.9,01.19,0.508
2015-06-15 04:20:00,1716E-3,5C000000,-0724,0822,12335,026.1,045.4,0.477,730.9,01.19,0.508